| time (UTC) | temp F | wind direction | speed knots | gust knots | rain 1hr in | rain 24hr in | rain mn in | humidity % | barometer mb |
| 20260506062048 | 41 | 0 | 0.0 | 0.0 | 0.00 | 0.00 | 0.00 | 65 | 1011.0 |
| 20260506061557 | 41 | 0 | 0.0 | 0.0 | 0.00 | 0.00 | 0.00 | 65 | 1011.0 |
| 20260506061047 | 41 | 0 | 0.0 | 0.0 | 0.00 | 0.00 | 0.00 | 62 | 1010.9 |
| 20260506060547 | 41 | 0 | 0.0 | 0.0 | 0.00 | 0.00 | 0.00 | 62 | 1011.0 |
| 20260506060120 | 42 | 0 | 0.0 | 0.0 | 0.00 | 0.00 | 0.00 | 62 | 1010.8 |
| 20260506051047 | 42 | 0 | 0.0 | 0.0 | 0.00 | 0.00 | 0.00 | 61 | 1011.1 |
| 20260506050547 | 42 | 0 | 0.0 | 0.0 | 0.00 | 0.00 | 0.00 | 61 | 1011.1 |
| 20260506045048 | 43 | 0 | 0.0 | 0.0 | 0.00 | 0.00 | 0.00 | 54 | 1011.1 |
| 20260506044605 | 43 | 0 | 0.0 | 0.0 | 0.00 | 0.00 | 0.00 | 53 | 1011.1 |
| 20260506044047 | 43 | 0 | 0.0 | 0.0 | 0.00 | 0.00 | 0.00 | 53 | 1011.1 |
| 20260506043544 | 44 | 0 | 0.0 | 0.0 | 0.00 | 0.00 | 0.00 | 53 | 1011.0 |
| 20260506043103 | 44 | 0 | 0.0 | 0.0 | 0.00 | 0.00 | 0.00 | 53 | 1010.9 |
| 20260506042548 | 44 | 0 | 0.0 | 0.0 | 0.00 | 0.00 | 0.00 | 51 | 1011.0 |
| 20260506042046 | 45 | 0 | 0.0 | 0.0 | 0.00 | 0.00 | 0.00 | 52 | 1011.0 |
| 20260506041559 | 45 | 0 | 0.0 | 0.0 | 0.00 | 0.00 | 0.00 | 50 | 1011.0 |
| 20260506041046 | 45 | 0 | 0.0 | 0.0 | 0.00 | 0.00 | 0.00 | 50 | 1010.9 |
| 20260506040545 | 45 | 0 | 0.0 | 0.0 | 0.00 | 0.00 | 0.00 | 49 | 1010.9 |
| 20260506040056 | 46 | 0 | 0.0 | 0.0 | 0.00 | 0.00 | 0.00 | 49 | 1010.7 |
| 20260506035546 | 46 | 0 | 0.0 | 2.6 | 0.00 | 0.00 | 0.00 | 48 | 1010.7 |
| 20260506035046 | 46 | 0 | 0.0 | 2.6 | 0.00 | 0.00 | 0.00 | 48 | 1010.5 |
| 20260506034600 | 47 | 0 | 0.9 | 4.3 | 0.00 | 0.00 | 0.00 | 47 | 1010.4 |
| 20260506034045 | 47 | 11 | 0.9 | 4.3 | 0.00 | 0.00 | 0.00 | 47 | 1010.3 |
| 20260506033545 | 47 | 24 | 1.7 | 4.3 | 0.00 | 0.00 | 0.00 | 46 | 1010.4 |
| 20260506033052 | 47 | 21 | 0.0 | 1.7 | 0.00 | 0.00 | 0.00 | 48 | 1010.4 |
| 20260506032549 | 47 | 0 | 0.0 | 1.7 | 0.00 | 0.00 | 0.00 | 47 | 1010.4 |
| 20260506032048 | 47 | 0 | 0.0 | 2.6 | 0.00 | 0.00 | 0.00 | 47 | 1010.2 |
| 20260506031559 | 47 | 30 | 0.0 | 3.5 | 0.00 | 0.00 | 0.00 | 48 | 1010.4 |
| 20260506031045 | 47 | 0 | 0.0 | 3.5 | 0.00 | 0.00 | 0.00 | 47 | 1010.2 |
| 20260506030548 | 47 | 26 | 0.9 | 3.5 | 0.00 | 0.00 | 0.00 | 47 | 1010.2 |
| 20260506030053 | 47 | 18 | 0.0 | 3.5 | 0.00 | 0.00 | 0.00 | 48 | 1010.1 |
| 20260506025547 | 47 | 5 | 0.9 | 3.5 | 0.00 | 0.00 | 0.00 | 49 | 1010.1 |
| 20260506025047 | 47 | 0 | 0.0 | 0.9 | 0.00 | 0.00 | 0.00 | 50 | 1010.1 |
| 20260506024601 | 47 | 0 | 0.0 | 0.9 | 0.00 | 0.00 | 0.00 | 49 | 1010.0 |
| 20260506024046 | 47 | 0 | 0.0 | 0.0 | 0.00 | 0.00 | 0.00 | 49 | 1010.0 |
| 20260506023547 | 47 | 0 | 0.0 | 0.0 | 0.00 | 0.00 | 0.00 | 49 | 1009.9 |
| 20260506023100 | 48 | 0 | 0.0 | 0.0 | 0.00 | 0.00 | 0.00 | 47 | 1009.9 |
| 20260506022545 | 48 | 0 | 0.0 | 0.0 | 0.00 | 0.00 | 0.00 | 47 | 1009.9 |
| 20260506022045 | 48 | 0 | 0.0 | 0.0 | 0.00 | 0.00 | 0.00 | 46 | 1009.7 |
| 20260506021553 | 49 | 0 | 0.0 | 0.9 | 0.00 | 0.00 | 0.00 | 45 | 1009.6 |
| 20260506021046 | 49 | 0 | 0.0 | 1.7 | 0.00 | 0.00 | 0.00 | 46 | 1009.6 |
| 20260506020545 | 49 | 0 | 0.0 | 1.7 | 0.00 | 0.00 | 0.00 | 44 | 1009.4 |
| 20260506020053 | 49 | 0 | 0.0 | 1.7 | 0.00 | 0.00 | 0.00 | 44 | 1009.3 |
| 20260506015545 | 49 | 0 | 0.0 | 0.9 | 0.00 | 0.00 | 0.00 | 44 | 1009.3 |
| 20260506015047 | 50 | 0 | 0.0 | 1.7 | 0.00 | 0.00 | 0.00 | 43 | 1009.2 |
| 20260506014554 | 50 | 0 | 0.0 | 2.6 | 0.00 | 0.00 | 0.00 | 43 | 1009.2 |
| 20260506014046 | 51 | 0 | 0.0 | 2.6 | 0.00 | 0.00 | 0.00 | 41 | 1009.0 |
| 20260506013548 | 51 | 0 | 0.9 | 3.5 | 0.00 | 0.00 | 0.00 | 41 | 1009.0 |
| 20260506013052 | 51 | 5 | 0.0 | 3.5 | 0.00 | 0.00 | 0.00 | 41 | 1008.9 |
| 20260506012547 | 51 | 15 | 0.0 | 2.6 | 0.00 | 0.00 | 0.00 | 41 | 1008.7 |
| 20260506012047 | 52 | 0 | 0.0 | 2.6 | 0.00 | 0.00 | 0.00 | 40 | 1008.6 |
| 20260506011550 | 52 | 0 | 0.0 | 4.3 | 0.00 | 0.00 | 0.00 | 40 | 1008.6 |
| 20260506011046 | 52 | 26 | 0.0 | 4.3 | 0.00 | 0.00 | 0.00 | 40 | 1008.5 |
| 20260506010546 | 52 | 0 | 0.9 | 4.3 | 0.00 | 0.00 | 0.00 | 39 | 1008.5 |
| 20260506010056 | 52 | 21 | 0.0 | 2.6 | 0.00 | 0.00 | 0.00 | 40 | 1008.5 |
| 20260506005545 | 52 | 0 | 0.0 | 4.3 | 0.00 | 0.00 | 0.00 | 40 | 1008.3 |
| 20260506005042 | 53 | 0 | 0.9 | 4.3 | 0.00 | 0.00 | 0.00 | 39 | 1008.3 |
| 20260506004554 | 53 | 13 | 0.9 | 3.5 | 0.00 | 0.00 | 0.00 | 38 | 1008.2 |
| 20260506004048 | 53 | 19 | 0.0 | 3.5 | 0.00 | 0.00 | 0.00 | 39 | 1008.2 |
| 20260506003545 | 53 | 29 | 0.0 | 4.3 | 0.00 | 0.00 | 0.00 | 39 | 1008.0 |
| 20260506003047 | 53 | 5 | 0.0 | 4.3 | 0.00 | 0.00 | 0.00 | 38 | 1008.1 |
| 20260506002546 | 53 | 28 | 0.9 | 4.3 | 0.00 | 0.00 | 0.00 | 38 | 1007.9 |
| 20260506002047 | 54 | 0 | 0.0 | 2.6 | 0.00 | 0.00 | 0.00 | 39 | 1007.8 |
| 20260506001551 | 54 | 0 | 0.0 | 2.6 | 0.00 | 0.00 | 0.00 | 38 | 1007.9 |
| 20260506001045 | 54 | 0 | 0.0 | 2.6 | 0.00 | 0.00 | 0.00 | 37 | 1007.9 |
| 20260506000545 | 54 | 0 | 0.0 | 1.7 | 0.00 | 0.00 | 0.00 | 39 | 1007.9 |
| 20260506000052 | 54 | 0 | 0.0 | 4.3 | 0.00 | 0.00 | 0.00 | 37 | 1007.9 |
| 20260505235546 | 54 | 0 | 0.0 | 4.3 | 0.00 | 0.00 | 0.00 | 39 | 1007.9 |
| 20260505235047 | 55 | 0 | 0.0 | 3.5 | 0.00 | 0.00 | 0.00 | 36 | 1007.8 |
| 20260505234555 | 55 | 0 | 0.0 | 6.1 | 0.00 | 0.00 | 0.00 | 38 | 1007.7 |
| 20260505234046 | 55 | 0 | 0.0 | 7.0 | 0.00 | 0.00 | 0.00 | 38 | 1007.9 |
| 20260505233546 | 55 | 0 | 0.9 | 7.0 | 0.00 | 0.00 | 0.00 | 37 | 1007.8 |
| 20260505233049 | 55 | 0 | 0.0 | 5.2 | 0.00 | 0.00 | 0.00 | 37 | 1007.7 |
| 20260505232547 | 55 | 0 | 0.0 | 5.2 | 0.00 | 0.00 | 0.00 | 37 | 1007.7 |
| 20260505232046 | 55 | 0 | 0.0 | 2.6 | 0.00 | 0.00 | 0.00 | 37 | 1007.6 |
| 20260505231601 | 55 | 0 | 0.0 | 5.2 | 0.00 | 0.00 | 0.00 | 38 | 1007.8 |
| 20260505231045 | 56 | 0 | 0.0 | 5.2 | 0.00 | 0.00 | 0.00 | 39 | 1007.8 |
| 20260505230545 | 56 | 21 | 0.0 | 2.6 | 0.00 | 0.00 | 0.00 | 37 | 1007.7 |
| 20260505230057 | 56 | 0 | 0.0 | 2.6 | 0.00 | 0.00 | 0.00 | 38 | 1007.7 |
| 20260505225547 | 56 | 0 | 0.0 | 1.7 | 0.00 | 0.00 | 0.00 | 40 | 1007.8 |
| 20260505225048 | 56 | 183 | 0.0 | 1.7 | 0.00 | 0.00 | 0.00 | 36 | 1007.7 |
| 20260505224552 | 56 | 0 | 0.0 | 1.7 | 0.00 | 0.00 | 0.00 | 37 | 1007.8 |
| 20260505224047 | 57 | 0 | 0.0 | 1.7 | 0.00 | 0.00 | 0.00 | 39 | 1007.9 |
| 20260505223546 | 56 | 0 | 0.0 | 1.7 | 0.00 | 0.00 | 0.00 | 40 | 1007.8 |
| 20260505223050 | 56 | 0 | 0.0 | 4.3 | 0.00 | 0.00 | 0.00 | 35 | 1007.7 |
| 20260505222547 | 56 | 0 | 0.0 | 4.3 | 0.00 | 0.00 | 0.00 | 38 | 1007.7 |
| 20260505222046 | 57 | 0 | 0.9 | 4.3 | 0.00 | 0.00 | 0.00 | 35 | 1007.7 |
| 20260505221554 | 56 | 205 | 0.0 | 2.6 | 0.00 | 0.00 | 0.00 | 39 | 1007.7 |
| 20260505221046 | 57 | 0 | 0.0 | 3.5 | 0.00 | 0.00 | 0.00 | 36 | 1007.6 |
| 20260505220545 | 57 | 205 | 0.9 | 3.5 | 0.00 | 0.00 | 0.00 | 37 | 1007.5 |
| 20260505220055 | 57 | 0 | 0.9 | 3.5 | 0.00 | 0.00 | 0.00 | 35 | 1007.6 |
| 20260505215545 | 57 | 184 | 0.0 | 3.5 | 0.00 | 0.00 | 0.00 | 36 | 1007.5 |
| 20260505215045 | 57 | 0 | 0.0 | 5.2 | 0.00 | 0.00 | 0.00 | 38 | 1007.6 |
| 20260505214552 | 57 | 0 | 0.0 | 5.2 | 0.00 | 0.00 | 0.00 | 39 | 1007.7 |
| 20260505214044 | 57 | 0 | 0.0 | 4.3 | 0.00 | 0.00 | 0.00 | 37 | 1007.6 |
| 20260505213546 | 57 | 205 | 0.0 | 8.7 | 0.00 | 0.00 | 0.00 | 40 | 1007.6 |
| 20260505213057 | 57 | 0 | 0.0 | 8.7 | 0.00 | 0.00 | 0.00 | 35 | 1007.5 |
| 20260505212547 | 58 | 286 | 1.7 | 8.7 | 0.00 | 0.00 | 0.00 | 33 | 1007.5 |
| 20260505212044 | 59 | 0 | 1.7 | 7.0 | 0.00 | 0.00 | 0.00 | 36 | 1007.5 |
| 20260505211551 | 59 | 0 | 0.9 | 5.2 | 0.00 | 0.00 | 0.00 | 36 | 1007.6 |
| 20260505211046 | 58 | 0 | 0.0 | 4.3 | 0.00 | 0.00 | 0.00 | 40 | 1007.4 |
| 20260505210543 | 59 | 59 | 0.0 | 3.5 | 0.00 | 0.00 | 0.00 | 38 | 1007.5 |
| 20260505210051 | 59 | 40 | 0.0 | 6.1 | 0.00 | 0.00 | 0.00 | 42 | 1007.5 |
| 20260505205545 | 57 | 0 | 0.9 | 6.1 | 0.00 | 0.00 | 0.00 | 42 | 1007.7 |
| 20260505205048 | 58 | 0 | 0.9 | 3.5 | 0.00 | 0.00 | 0.00 | 40 | 1007.6 |
| 20260505204554 | 58 | 180 | 0.0 | 3.5 | 0.00 | 0.00 | 0.00 | 36 | 1007.8 |
| 20260505204042 | 58 | 0 | 0.9 | 3.5 | 0.00 | 0.00 | 0.00 | 40 | 1007.7 |
| 20260505203544 | 58 | 0 | 0.0 | 3.5 | 0.00 | 0.00 | 0.00 | 37 | 1007.8 |
| 20260505203100 | 59 | 0 | 0.0 | 3.5 | 0.00 | 0.00 | 0.00 | 43 | 1007.8 |
| 20260505202544 | 58 | 230 | 0.0 | 4.3 | 0.00 | 0.00 | 0.00 | 39 | 1007.8 |
| 20260505202045 | 59 | 222 | 0.0 | 4.3 | 0.00 | 0.00 | 0.00 | 42 | 1007.9 |
| 20260505201552 | 59 | 204 | 0.9 | 3.5 | 0.00 | 0.00 | 0.00 | 38 | 1008.1 |
| 20260505201044 | 58 | 225 | 0.0 | 3.5 | 0.00 | 0.00 | 0.00 | 43 | 1008.0 |
| 20260505200544 | 58 | 98 | 0.9 | 3.5 | 0.00 | 0.00 | 0.00 | 40 | 1008.0 |
| 20260505200049 | 59 | 0 | 0.0 | 5.2 | 0.00 | 0.00 | 0.00 | 41 | 1008.1 |
| 20260505195544 | 58 | 0 | 0.9 | 5.2 | 0.00 | 0.00 | 0.00 | 40 | 1008.2 |
| 20260505195044 | 58 | 179 | 0.9 | 4.3 | 0.00 | 0.00 | 0.00 | 40 | 1008.2 |
| 20260505194551 | 58 | 36 | 0.0 | 2.6 | 0.00 | 0.00 | 0.00 | 38 | 1008.4 |
| 20260505194044 | 58 | 0 | 0.0 | 7.8 | 0.00 | 0.00 | 0.00 | 39 | 1008.2 |
| 20260505193544 | 58 | 0 | 0.0 | 7.8 | 0.00 | 0.00 | 0.00 | 37 | 1008.4 |
| 20260505193048 | 58 | 58 | 0.9 | 7.8 | 0.00 | 0.00 | 0.00 | 37 | 1008.4 |
| 20260505192548 | 58 | 0 | 0.0 | 5.2 | 0.00 | 0.00 | 0.00 | 41 | 1008.4 |
| 20260505192044 | 58 | 227 | 0.0 | 6.1 | 0.00 | 0.00 | 0.00 | 40 | 1008.4 |
| 20260505191608 | 58 | 0 | 1.7 | 6.1 | 0.00 | 0.00 | 0.00 | 40 | 1008.5 |
| 20260505191044 | 58 | 0 | 0.9 | 4.3 | 0.00 | 0.00 | 0.00 | 41 | 1008.5 |
| 20260505190545 | 58 | 0 | 0.0 | 5.2 | 0.00 | 0.00 | 0.00 | 43 | 1008.4 |
| 20260505190047 | 57 | 199 | 0.0 | 5.2 | 0.00 | 0.00 | 0.00 | 39 | 1008.5 |
| 20260505185544 | 57 | 0 | 0.9 | 5.2 | 0.00 | 0.00 | 0.00 | 41 | 1008.4 |
| 20260505185044 | 58 | 210 | 0.0 | 3.5 | 0.00 | 0.00 | 0.00 | 41 | 1008.3 |
| 20260505184549 | 58 | 0 | 0.9 | 3.5 | 0.00 | 0.00 | 0.00 | 38 | 1008.2 |
| 20260505184045 | 59 | 211 | 0.0 | 3.5 | 0.00 | 0.00 | 0.00 | 38 | 1008.2 |
| 20260505183542 | 58 | 0 | 0.0 | 6.1 | 0.00 | 0.00 | 0.00 | 41 | 1008.0 |
| 20260505183051 | 57 | 0 | 0.9 | 7.0 | 0.00 | 0.00 | 0.00 | 39 | 1008.1 |
| 20260505182544 | 58 | 34 | 0.9 | 7.0 | 0.00 | 0.00 | 0.00 | 38 | 1008.1 |
| 20260505182047 | 58 | 236 | 0.9 | 7.0 | 0.00 | 0.00 | 0.00 | 36 | 1008.0 |
| 20260505181549 | 57 | 317 | 0.9 | 5.2 | 0.00 | 0.00 | 0.00 | 38 | 1008.0 |
| 20260505181044 | 57 | 0 | 0.0 | 3.5 | 0.00 | 0.00 | 0.00 | 37 | 1007.9 |
| 20260505180544 | 57 | 165 | 0.0 | 2.6 | 0.00 | 0.00 | 0.00 | 37 | 1007.9 |
| 20260505180104 | 57 | 207 | 0.0 | 4.3 | 0.00 | 0.00 | 0.00 | 36 | 1007.7 |
| 20260505175542 | 57 | 207 | 0.0 | 4.3 | 0.00 | 0.00 | 0.00 | 34 | 1007.8 |
| 20260505175042 | 57 | 0 | 0.0 | 3.5 | 0.00 | 0.00 | 0.00 | 38 | 1007.7 |
| 20260505174604 | 57 | 0 | 0.0 | 3.5 | 0.00 | 0.00 | 0.00 | 39 | 1007.6 |
| 20260505174043 | 57 | 255 | 0.9 | 5.2 | 0.00 | 0.00 | 0.00 | 42 | 1007.7 |
| 20260505173543 | 56 | 175 | 0.0 | 5.2 | 0.00 | 0.00 | 0.00 | 42 | 1007.9 |
| 20260505173055 | 56 | 209 | 1.7 | 5.2 | 0.00 | 0.00 | 0.00 | 42 | 1007.9 |
| 20260505172545 | 56 | 0 | 0.0 | 3.5 | 0.00 | 0.00 | 0.00 | 41 | 1007.9 |
| 20260505172045 | 55 | 0 | 0.0 | 3.5 | 0.00 | 0.00 | 0.00 | 38 | 1008.0 |
| 20260505171552 | 55 | 196 | 0.9 | 3.5 | 0.00 | 0.00 | 0.00 | 41 | 1008.1 |
| 20260505171046 | 56 | 0 | 0.0 | 2.6 | 0.00 | 0.00 | 0.00 | 42 | 1007.9 |
| 20260505170547 | 56 | 0 | 0.0 | 2.6 | 0.00 | 0.00 | 0.00 | 40 | 1007.9 |
| 20260505170052 | 57 | 0 | 0.0 | 2.6 | 0.00 | 0.00 | 0.00 | 41 | 1007.7 |
| 20260505165548 | 57 | 0 | 0.0 | 5.2 | 0.00 | 0.00 | 0.00 | 43 | 1007.8 |
| 20260505165045 | 57 | 355 | 0.0 | 5.2 | 0.00 | 0.00 | 0.00 | 39 | 1007.5 |
| 20260505164554 | 56 | 0 | 0.9 | 5.2 | 0.00 | 0.00 | 0.00 | 40 | 1007.7 |
| 20260505164043 | 57 | 0 | 0.9 | 4.3 | 0.00 | 0.00 | 0.00 | 38 | 1007.5 |
| 20260505163545 | 57 | 209 | 0.0 | 2.6 | 0.00 | 0.00 | 0.00 | 43 | 1007.4 |
| 20260505163052 | 57 | 350 | 0.0 | 7.8 | 0.00 | 0.00 | 0.00 | 44 | 1007.7 |
| 20260505162543 | 56 | 0 | 0.9 | 7.8 | 0.00 | 0.00 | 0.00 | 43 | 1007.8 |
| 20260505162047 | 55 | 184 | 1.7 | 4.3 | 0.00 | 0.00 | 0.00 | 46 | 1007.7 |
| 20260505161555 | 56 | 192 | 0.9 | 5.2 | 0.00 | 0.00 | 0.00 | 42 | 1007.9 |
| 20260505161047 | 56 | 209 | 0.0 | 5.2 | 0.00 | 0.00 | 0.00 | 41 | 1007.6 |
| 20260505160547 | 58 | 182 | 0.9 | 5.2 | 0.00 | 0.00 | 0.00 | 40 | 1007.6 |
| 20260505153054 | 55 | 217 | 0.9 | 4.3 | 0.00 | 0.00 | 0.00 | 41 | 1007.7 |
| 20260505152546 | 55 | 0 | 0.9 | 4.3 | 0.00 | 0.00 | 0.00 | 42 | 1007.8 |
| 20260505152045 | 54 | 194 | 0.0 | 3.5 | 0.00 | 0.00 | 0.00 | 46 | 1007.8 |
| 20260505151551 | 55 | 0 | 0.0 | 5.2 | 0.00 | 0.00 | 0.00 | 42 | 1007.7 |
| 20260505151045 | 55 | 187 | 0.9 | 5.2 | 0.00 | 0.00 | 0.00 | 41 | 1007.8 |
| 20260505150545 | 55 | 0 | 0.0 | 5.2 | 0.00 | 0.00 | 0.00 | 40 | 1007.7 |
| 20260505140545 | 52 | 188 | 0.9 | 7.8 | 0.00 | 0.00 | 0.00 | 50 | 1008.0 |
| 20260505124551 | 48 | 0 | 0.0 | 0.9 | 0.00 | 0.00 | 0.00 | 52 | 1007.9 |
| 20260505124047 | 48 | 0 | 0.0 | 0.9 | 0.00 | 0.00 | 0.00 | 54 | 1008.0 |
| 20260505123551 | 48 | 0 | 0.0 | 0.0 | 0.00 | 0.00 | 0.00 | 56 | 1008.3 |
| 20260505123053 | 47 | 0 | 0.0 | 0.0 | 0.00 | 0.00 | 0.00 | 56 | 1008.1 |
| 20260505122546 | 46 | 0 | 0.0 | 0.9 | 0.00 | 0.00 | 0.00 | 57 | 1008.2 |
| 20260505122045 | 46 | 0 | 0.0 | 1.7 | 0.00 | 0.00 | 0.00 | 58 | 1007.8 |
| 20260505121549 | 46 | 0 | 0.0 | 2.6 | 0.00 | 0.00 | 0.00 | 54 | 1007.6 |
| 20260505121043 | 46 | 69 | 0.0 | 2.6 | 0.00 | 0.00 | 0.00 | 54 | 1007.7 |
| 20260505120545 | 45 | 0 | 0.0 | 2.6 | 0.00 | 0.00 | 0.00 | 55 | 1007.7 |
| 20260505120053 | 45 | 0 | 0.0 | 2.6 | 0.00 | 0.00 | 0.00 | 55 | 1008.0 |
| 20260505115546 | 45 | 0 | 0.0 | 0.9 | 0.00 | 0.00 | 0.00 | 58 | 1009.0 |
| 20260505115047 | 45 | 0 | 0.0 | 0.9 | 0.00 | 0.00 | 0.00 | 56 | 1007.7 |
| 20260505114603 | 45 | 0 | 0.0 | 0.9 | 0.00 | 0.00 | 0.00 | 57 | 1007.1 |
| 20260505114045 | 45 | 0 | 0.0 | 0.9 | 0.00 | 0.00 | 0.00 | 54 | 1006.9 |
| 20260505113546 | 45 | 0 | 0.0 | 3.5 | 0.00 | 0.00 | 0.00 | 54 | 1006.7 |
| 20260505113107 | 45 | 0 | 0.0 | 3.5 | 0.00 | 0.00 | 0.00 | 52 | 1006.4 |
| 20260505112548 | 45 | 0 | 0.0 | 2.6 | 0.00 | 0.00 | 0.00 | 52 | 1006.3 |
| 20260505112043 | 45 | 28 | 0.0 | 1.7 | 0.00 | 0.00 | 0.00 | 52 | 1006.5 |
| 20260505111551 | 45 | 0 | 0.0 | 1.7 | 0.00 | 0.00 | 0.00 | 52 | 1006.5 |
| 20260505111043 | 45 | 11 | 0.0 | 2.6 | 0.00 | 0.00 | 0.00 | 52 | 1006.6 |
| 20260505110547 | 45 | 0 | 0.0 | 2.6 | 0.00 | 0.00 | 0.00 | 52 | 1007.0 |
| 20260505102045 | 45 | 0 | 0.0 | 1.7 | 0.00 | 0.00 | 0.00 | 50 | 1005.9 |
| 20260505101607 | 45 | 0 | 0.0 | 1.7 | 0.00 | 0.00 | 0.00 | 51 | 1006.0 |
| 20260505101045 | 46 | 0 | 0.0 | 3.5 | 0.00 | 0.00 | 0.00 | 50 | 1006.2 |
| 20260505100545 | 46 | 0 | 0.0 | 3.5 | 0.00 | 0.00 | 0.00 | 50 | 1006.1 |
| 20260505100105 | 46 | 0 | 0.9 | 6.1 | 0.00 | 0.00 | 0.00 | 51 | 1005.8 |
| 20260505095543 | 46 | 10 | 0.0 | 6.1 | 0.00 | 0.00 | 0.00 | 52 | 1005.6 |
| 20260505095044 | 45 | 11 | 0.0 | 5.2 | 0.00 | 0.00 | 0.00 | 53 | 1005.4 |
| 20260505094553 | 45 | 29 | 0.9 | 6.1 | 0.00 | 0.00 | 0.00 | 53 | 1005.5 |
| 20260505094047 | 45 | 351 | 0.0 | 6.1 | 0.00 | 0.00 | 0.00 | 53 | 1005.7 |
| 20260505093547 | 45 | 0 | 0.0 | 1.7 | 0.00 | 0.00 | 0.00 | 53 | 1005.9 |
| 20260505093104 | 46 | 0 | 0.0 | 2.6 | 0.00 | 0.00 | 0.00 | 54 | 1005.8 |
| 20260505092547 | 45 | 0 | 0.0 | 2.6 | 0.00 | 0.00 | 0.00 | 54 | 1006.0 |
| 20260505092046 | 45 | 304 | 0.0 | 0.9 | 0.00 | 0.00 | 0.00 | 54 | 1006.1 |
| 20260505091554 | 45 | 0 | 0.0 | 0.9 | 0.00 | 0.00 | 0.00 | 54 | 1006.0 |
| 20260505091045 | 46 | 0 | 0.0 | 0.0 | 0.00 | 0.00 | 0.00 | 54 | 1006.0 |
| 20260505090545 | 46 | 0 | 0.0 | 0.9 | 0.00 | 0.00 | 0.00 | 53 | 1005.9 |
| 20260505090101 | 46 | 0 | 0.0 | 4.3 | 0.00 | 0.00 | 0.00 | 53 | 1005.6 |
| 20260505085546 | 47 | 0 | 0.0 | 4.3 | 0.00 | 0.00 | 0.00 | 51 | 1005.4 |
| 20260505085045 | 47 | 0 | 0.0 | 2.6 | 0.00 | 0.00 | 0.00 | 52 | 1005.4 |
| 20260505084557 | 47 | 24 | 0.0 | 1.7 | 0.00 | 0.00 | 0.00 | 52 | 1005.3 |
| 20260505084042 | 47 | 0 | 0.0 | 4.3 | 0.00 | 0.00 | 0.00 | 52 | 1004.9 |
| 20260505083546 | 48 | 25 | 0.9 | 4.3 | 0.00 | 0.00 | 0.00 | 51 | 1004.7 |
| 20260505083053 | 48 | 0 | 0.0 | 7.0 | 0.00 | 0.00 | 0.00 | 51 | 1004.7 |
| 20260505082542 | 48 | 15 | 0.9 | 7.0 | 0.00 | 0.00 | 0.00 | 51 | 1004.3 |
| 20260505082047 | 48 | 360 | 0.9 | 6.1 | 0.00 | 0.00 | 0.00 | 51 | 1004.4 |
| 20260505081604 | 48 | 0 | 1.7 | 6.1 | 0.00 | 0.00 | 0.00 | 51 | 1004.5 |
| 20260505081047 | 49 | 0 | 0.9 | 7.8 | 0.00 | 0.00 | 0.00 | 51 | 1004.4 |
| 20260505080549 | 49 | 39 | 1.7 | 7.8 | 0.00 | 0.00 | 0.00 | 50 | 1004.0 |
| 20260505080059 | 49 | 90 | 1.7 | 6.1 | 0.00 | 0.00 | 0.00 | 51 | 1003.8 |
| 20260505075547 | 49 | 0 | 0.9 | 3.5 | 0.00 | 0.00 | 0.00 | 53 | 1003.8 |
| 20260505075046 | 49 | 0 | 0.0 | 4.3 | 0.00 | 0.00 | 0.00 | 54 | 1003.4 |
| 20260505074550 | 50 | 5 | 0.9 | 4.3 | 0.00 | 0.00 | 0.00 | 54 | 1003.2 |
| 20260505074046 | 50 | 0 | 0.0 | 7.8 | 0.00 | 0.00 | 0.00 | 54 | 1003.1 |
| 20260505073543 | 50 | 0 | 0.9 | 7.8 | 0.00 | 0.00 | 0.00 | 53 | 1003.2 |
| 20260505073100 | 51 | 10 | 0.0 | 3.5 | 0.00 | 0.00 | 0.00 | 53 | 1003.4 |
| 20260505072542 | 51 | 47 | 0.0 | 7.8 | 0.00 | 0.00 | 0.00 | 52 | 1003.3 |
| 20260505072046 | 51 | 0 | 0.9 | 7.8 | 0.00 | 0.00 | 0.00 | 52 | 1003.2 |
| 20260505071555 | 51 | 284 | 0.0 | 7.0 | 0.00 | 0.00 | 0.00 | 53 | 1002.9 |
| 20260505071047 | 51 | 0 | 1.7 | 7.0 | 0.00 | 0.00 | 0.00 | 52 | 1002.9 |
| 20260505070547 | 51 | 13 | 0.9 | 4.3 | 0.00 | 0.00 | 0.00 | 52 | 1002.8 |